Location: Choisy
(48.7685°N, 2.4187°E)
Time: 10:46:49
(UTC+00:00)

ATLAS 3B R/B - Pass Details

Date: 04 December 2023
Orbit: 947 x 1247 km, 63.8° (Epoch: 10 February)

Event Time Altitude Azimuth Distance (km) Brightness Sun altitude
Exits shadow 05:42:14 22° 275° (W) 2,237 3.8 -16.2°
Maximum altitude 05:46:18 40° 330° (NNW) 1,669 3.4 -15.6°
Drops below altitude 10° 05:53:24 10° 38° (NE) 3,176 5.4 -14.4°
Sets 05:56:29 0° 46° (NE) 4,169 6.2 -14.0°
